Location: ??????
(41.3164°N, 22.6615°E)
Time: 02:15:31
(UTC+00:00)

UWE-3 - Pass Details

Date: 08 July 2022
Orbit: 583 x 677 km, 97.7° (Epoch: 16 August)

Event Time Altitude Azimuth Distance (km) Brightness Sun altitude
Rises 01:23:11 0° 20° (NNE) 2,937 ? -15.2°
Reaches altitude 10° 01:25:29 10° 28° (NNE) 2,040 ? -14.9°
Maximum altitude 01:29:41 40° 98° (E) 955 ? -14.4°
Drops below altitude 10° 01:33:58 10° 169° (SSE) 2,075 ? -13.8°
Enters shadow 01:34:33 - 171° (S) 2,300 ? -13.8°
